Retour au catalogue

STARLINK-11432

ActifCommunicationsVLEO
NORAD 62882·PAYLOAD·🇺🇸 United States

Lancé Feb 4, 2025 depuis Cape Canaveral Space Force Station

Loading…

Prochains Passages (prochaines 24 heures)

TLE

FraisSource: CelesTrak SupGP

Époque: Sep 15, 2026, 03:37 UTC

1 62882C 25024D   26258.15118056  .00097255  00000+0  75511-3 0  2586
2 62882  43.0004 119.6624 0001753 280.9622   4.6589 15.70798433    13

Suivez STARLINK-11432 en temps réel avec AllMySat

Download on the App Store